Location: Unspecified
(0.0000°N, 0.0000°E)
Time: 15:56:05
(UTC+00:00)

Vanguard 1 Rocket - Pass Details

Date: 20 January 2020
Orbit: 650 x 4226 km, 34.3° (Epoch: 24 February)

Event Time Altitude Azimuth Distance (km) Brightness Sun altitude
Rises 20:56:59 0° 288° (WNW) 8,463 12.9 -38.5°
Reaches altitude 10° 21:03:57 10° 280° (W) 7,303 12.4 -40.0°
Maximum altitude 21:24:45 37° 220° (SW) 4,172 10.9 -44.6°
Drops below altitude 10° 21:37:42 10° 156° (SSE) 4,609 11.0 -47.5°
Sets 21:40:59 0° 147° (SSE) 5,189 11.3 -48.2°
